This is the latest recevied weather packets stored in our database for station/object AI5KP-13. If no packets are shown the sender has not sent any weather packets the latest 10 day(s).
| Time | Temp. | Humidity | Pressure | Rain* | Wind** | Luminosity | Snow |
|---|---|---|---|---|---|---|---|
| 1777913127 | 22.78° C | 60% | 1009.2 hPa | 0 mm | - | 700 W/m² | - |
| 1777912823 | 22.78° C | 55% | 1009.3 hPa | 0 mm | - | 693 W/m² | - |
| 1777912519 | 22.22° C | 57% | 1009.2 hPa | 0 mm | - | 689 W/m² | - |
| 1777912216 | 22.22° C | 56% | 1009.4 hPa | 0 mm | - | 682 W/m² | - |
| 1777911912 | 22.78° C | 56% | 1009.1 hPa | 0 mm | - | 674 W/m² | - |
| 1777911608 | 22.22° C | 58% | 1009.2 hPa | 0 mm | - | 669 W/m² | - |
| 1777911304 | 22.22° C | 58% | 1009.2 hPa | 0 mm | - | 659 W/m² | - |
| 1777911002 | 21.67° C | 59% | 1009.2 hPa | 0 mm | - | 651 W/m² | - |
| 1777910700 | 21.67° C | 58% | 1009.2 hPa | 0 mm | - | 642 W/m² | - |
| 1777910395 | 21.67° C | 58% | 1009.3 hPa | 0 mm | - | 631 W/m² | - |
| 1777910092 | 21.67° C | 58% | 1009.3 hPa | 0 mm | - | 622 W/m² | - |
| 1777909790 | 21.67° C | 58% | 1009.4 hPa | 0 mm | - | 611 W/m² | - |
| 1777909487 | 21.67° C | 57% | 1009.4 hPa | 0 mm | - | 601 W/m² | - |
| 1777909184 | 21.67° C | 57% | 1009.8 hPa | 0 mm | - | 589 W/m² | - |
| 1777908882 | 21.11° C | 56% | 1009.6 hPa | 0 mm | - | 578 W/m² | - |
| 1777908580 | 21.11° C | 57% | 1009.4 hPa | 0 mm | - | 564 W/m² | - |
| 1777908276 | 21.11° C | 57% | 1009.6 hPa | 0 mm | - | 553 W/m² | - |
| 1777907972 | 21.11° C | 57% | 1009.6 hPa | 0 mm | - | 542 W/m² | - |
| 1777907668 | 20.56° C | 58% | 1009.7 hPa | 0 mm | - | 529 W/m² | - |
| 1777907364 | 20.56° C | 57% | 1009.8 hPa | 0 mm | - | 516 W/m² | - |
| 1777907060 | 20.56° C | 57% | 1009.7 hPa | 0 mm | - | 501 W/m² | - |
| 1777906758 | 20.56° C | 57% | 1009.7 hPa | 0 mm | - | 489 W/m² | - |
| 1777906454 | 20.56° C | 58% | 1009.6 hPa | 0 mm | - | 473 W/m² | - |
| 1777906151 | 20.56° C | 56% | 1009.8 hPa | 0 mm | - | 460 W/m² | - |
| 1777905848 | 20.56° C | 56% | 1009.8 hPa | 0 mm | - | 449 W/m² | - |
* Rain latest hour (hover to see other rain measurements)
** Current wind speed in m/s (hover to see current wind gust speed)